Location: Chervonnoye
(48.6000°N, 34.4000°E)
Time: 06:35:47
(UTC+00:00)

Nadezhda 1 Rocket - Pass Details

Date: 20 April 2021
Orbit: 940 x 1006 km, 83.0° (Epoch: 13 May)

Event Time Altitude Azimuth Distance (km) Brightness Sun altitude
Exits shadow 21:31:15 44° 93° (E) 1,362 4.6 -29.5°
Maximum altitude 21:31:24 44° 89° (E) 1,360 4.6 -29.5°
Drops below altitude 10° 21:37:23 10° 20° (NNE) 2,781 7.2 -29.6°
Sets 21:40:01 0° 14° (NNE) 3,728 8.2 -29.6°
